Theta_e
321 318 315 314 313 312 312 310 310 311 312 311 311 312 316 316 317 317 319 319 319 318
311 309 309 307 305 303 303 303 304 305 306 306 307 308 310 312 310 313 313 313 312 313
304 303 301 300 299 299 298 299 300 300 301 300 301 302 303 303 302 304 304 304 303 305
299 298 297 296 296 296 297 297 297 297 297 297 297 298 298 298 298 298 299 299 298 298
295 294 294 294 294 294 293 294 294 294 294 294 293 293 294 294 294 294 294 294 294 293
292 291 290 291 291 291 291 291 290 291 291 291 291 291 292 291 291 291 290 290 289 290
288 288 287 288 288 288 288 289 289 288 288 289 290 289 289 289 289 288 289 289 288 288
285 285 286 285 285 285 286 285 286 285 285 286 287 288 288 287 287 286 286 287 287 287
284 284 284 284 284 284 283 284 284 283 283 283 285 287 287 286 285 285 284 284 285 286
283 282 282 283 283 282 282 283 282 282 282 282 284 285 286 285 284 284 284 284 284 284
282 281 281 281 281 281 281 281 281 281 281 281 282 284 285 284 285 284 284 284 284 283
281 280 280 280 280 280 280 280 280 280 280 280 281 283 284 284 284 283 283 283 284 283
280 280 279 279 279 279 279 278 279 278 280 279 280 282 284 283 283 282 282 282 282 282
278 278 279 278 278 278 278 278 278 278 278 279 279 281 282 282 282 281 281 281 281 281
Wind_Speed
9 6 6 8 6 5 4 4 3 4 4 5 4 3 3 2 2 2 1 4 4 4
10 10 8 8 6 7 3 5 7 7 6 7 6 6 5 3 4 4 5 4 5 4
9 9 10 9 7 8 4 6 6 6 8 7 7 7 6 5 6 6 4 4 6 5
10 9 6 10 8 7 6 6 5 6 6 5 4 6 7 7 8 8 6 7 6 5
10 10 7 9 9 8 6 6 6 7 7 6 7 8 7 6 6 6 6 7 6 7
12 9 12 8 11 7 6 6 7 8 7 6 6 7 7 6 6 6 6 6 5 6
10 9 8 9 9 8 8 6 6 8 7 7 7 7 6 6 5 5 5 5 5 5
9 8 8 8 9 8 8 6 5 7 7 6 7 6 7 6 6 7 7 6 7 7
9 8 8 8 7 7 5 6 7 7 6 7 5 10 11 9 6 6 6 6 7 6
8 8 8 6 6 7 6 6 6 6 6 7 7 10 9 8 4 3 4 5 5 5
7 8 7 6 6 5 4 5 5 5 6 5 5 8 8 6 5 4 5 6 6 7
6 7 7 6 5 4 4 5 5 4 5 5 6 8 8 7 5 6 6 6 6 7
6 6 6 6 6 3 5 5 3 5 6 6 6 10 11 11 5 7 6 6 7 7
5 6 6 5 4 4 5 5 5 6 6 7 7 6 8 9 4 5 6 6 6 6
Wind_Direction
110 106 84 73 69 57 61 36 39 68 76 66 58 70 66 61 48 46 40 10 357 343
115 108 108 106 114 113 81 84 51 34 45 39 38 31 42 58 47 36 34 24 6 348
105 105 119 102 80 84 76 66 56 51 52 41 40 39 42 43 39 43 36 36 21 16
89 87 68 106 110 76 88 105 113 98 88 72 66 53 53 46 32 35 20 25 13 11
102 104 115 79 96 116 121 91 97 88 80 61 46 49 52 48 38 37 31 23 14 16
105 109 95 114 91 94 84 84 72 79 76 76 63 57 46 48 35 35 28 18 17 8
81 85 88 76 84 79 77 67 70 72 67 64 64 48 42 35 32 27 24 15 16 12
100 88 91 86 93 72 77 87 76 78 67 67 57 37 29 27 20 15 10 10 8 13
107 115 81 96 84 100 103 81 71 60 63 66 54 35 33 19 17 14 16 7 358 356
102 100 89 103 98 77 72 85 79 72 63 61 49 32 27 21 20 19 25 15 357 354
110 103 99 98 92 98 103 89 85 74 69 81 56 37 27 16 13 26 24 13 5 356
131 125 119 115 121 139 124 94 84 79 77 75 68 32 26 26 15 14 10 6 353 340
113 118 132 147 153 130 98 105 108 91 71 60 53 29 28 23 11 5 347 344 342 339
126 142 152 147 134 131 116 103 75 70 58 50 34 22 23 20 10 353 331 328 330 326